| time (UTC) | temp F | wind direction | speed MPH | gust MPH | rain 1hr in | rain 24hr in | rain mn in | humidity % | barometer mb |
| 20260506051218 | 46 | 67 | 0.0 | 0.0 | 0.00 | 0.34 | 0.00 | 95 | 1007.3 |
| 20260506050212 | 46 | 285 | 0.0 | 0.0 | 0.00 | 0.34 | 0.00 | 95 | 1007.3 |
| 20260506044709 | 46 | 249 | 0.0 | 0.0 | 0.00 | 0.34 | 0.00 | 95 | 1007.6 |
| 20260506044218 | 46 | 249 | 0.0 | 0.0 | 0.00 | 0.34 | 0.00 | 95 | 1007.6 |
| 20260506043225 | 46 | 162 | 0.0 | 0.0 | 0.00 | 0.34 | 0.00 | 95 | 1007.6 |
| 20260506042729 | 46 | 319 | 0.0 | 0.0 | 0.00 | 0.34 | 0.00 | 95 | 1007.6 |
| 20260506042221 | 46 | 319 | 0.0 | 0.0 | 0.00 | 0.34 | 0.00 | 95 | 1007.6 |
| 20260506041724 | 46 | 319 | 0.0 | 0.0 | 0.00 | 0.34 | 0.00 | 95 | 1007.6 |
| 20260506040713 | 46 | 310 | 0.0 | 0.0 | 0.00 | 0.34 | 0.00 | 95 | 1007.6 |
| 20260506040218 | 46 | 311 | 0.0 | 0.0 | 0.00 | 0.34 | 0.00 | 95 | 1007.7 |
| 20260506035216 | 46 | 311 | 0.0 | 0.0 | 0.00 | 0.34 | 0.00 | 95 | 1007.9 |
| 20260506034722 | 46 | 111 | 0.0 | 0.0 | 0.00 | 0.34 | 0.00 | 95 | 1007.9 |
| 20260506033719 | 46 | 111 | 0.0 | 0.0 | 0.00 | 0.34 | 0.00 | 95 | 1007.9 |
| 20260506033223 | 46 | 100 | 0.0 | 0.0 | 0.00 | 0.34 | 0.00 | 95 | 1007.8 |
| 20260506032730 | 46 | 23 | 0.0 | 0.0 | 0.00 | 0.34 | 0.00 | 95 | 1007.9 |
| 20260506032228 | 46 | 23 | 0.0 | 0.0 | 0.00 | 0.34 | 0.00 | 95 | 1007.9 |
| 20260506031724 | 46 | 23 | 0.0 | 0.0 | 0.00 | 0.34 | 0.00 | 95 | 1007.9 |
| 20260506031220 | 46 | 23 | 0.0 | 0.0 | 0.00 | 0.34 | 0.00 | 95 | 1008.0 |
| 20260506030727 | 46 | 23 | 0.0 | 0.0 | 0.00 | 0.34 | 0.00 | 95 | 1007.9 |
| 20260506025715 | 46 | 23 | 0.0 | 0.0 | 0.00 | 0.34 | 0.00 | 95 | 1008.1 |
| 20260506024723 | 46 | 28 | 0.0 | 0.0 | 0.00 | 0.34 | 0.00 | 95 | 1008.1 |
| 20260506024211 | 46 | 30 | 0.0 | 0.0 | 0.00 | 0.34 | 0.00 | 95 | 1008.1 |
| 20260506023217 | 46 | 30 | 0.0 | 0.0 | 0.00 | 0.34 | 0.00 | 95 | 1008.4 |
| 20260506022706 | 46 | 0 | 0.0 | 0.0 | 0.00 | 0.34 | 0.00 | 95 | 1008.5 |
| 20260506022229 | 46 | 348 | 0.0 | 0.0 | 0.00 | 0.34 | 0.00 | 95 | 1008.4 |
| 20260506021725 | 46 | 342 | 0.0 | 0.0 | 0.00 | 0.34 | 0.00 | 95 | 1008.6 |
| 20260506021229 | 46 | 342 | 0.0 | 0.0 | 0.00 | 0.34 | 0.00 | 95 | 1008.6 |
| 20260506020730 | 46 | 103 | 0.0 | 0.0 | 0.00 | 0.34 | 0.00 | 95 | 1008.5 |
| 20260506020218 | 46 | 110 | 0.0 | 0.0 | 0.00 | 0.34 | 0.00 | 95 | 1008.5 |
| 20260506015225 | 46 | 5 | 0.0 | 0.0 | 0.00 | 0.34 | 0.00 | 95 | 1008.5 |
| 20260506014723 | 46 | 5 | 0.0 | 0.0 | 0.00 | 0.34 | 0.00 | 95 | 1008.5 |
| 20260506014230 | 46 | 5 | 0.0 | 0.0 | 0.00 | 0.34 | 0.00 | 95 | 1008.7 |
| 20260506013223 | 45 | 5 | 0.0 | 0.0 | 0.00 | 0.34 | 0.00 | 95 | 1008.9 |
| 20260506012730 | 45 | 5 | 0.0 | 0.0 | 0.00 | 0.34 | 0.00 | 95 | 1009.0 |
| 20260506011734 | 45 | 155 | 0.0 | 0.0 | 0.00 | 0.34 | 0.00 | 95 | 1009.1 |
| 20260506011214 | 45 | 155 | 0.0 | 0.0 | 0.00 | 0.34 | 0.00 | 95 | 1009.1 |
| 20260506010727 | 45 | 130 | 0.0 | 0.0 | 0.00 | 0.34 | 0.00 | 95 | 1009.2 |
| 20260506010215 | 45 | 43 | 0.0 | 0.0 | 0.00 | 0.34 | 0.00 | 94 | 1009.2 |
| 20260506005727 | 45 | 43 | 0.0 | 0.0 | 0.00 | 0.34 | 0.00 | 94 | 1009.1 |
| 20260506005232 | 45 | 43 | 0.0 | 0.0 | 0.00 | 0.34 | 0.00 | 94 | 1009.1 |
| 20260506004723 | 45 | 45 | 0.0 | 0.0 | 0.00 | 0.34 | 0.00 | 94 | 1009.1 |
| 20260506003718 | 45 | 151 | 0.0 | 0.0 | 0.00 | 0.34 | 0.00 | 94 | 1009.2 |
| 20260506002729 | 46 | 151 | 0.0 | 0.0 | 0.00 | 0.34 | 0.00 | 94 | 1009.3 |
| 20260506002213 | 46 | 150 | 0.0 | 0.0 | 0.00 | 0.34 | 0.00 | 94 | 1009.2 |
| 20260506001711 | 46 | 150 | 0.0 | 0.0 | 0.00 | 0.34 | 0.00 | 94 | 1009.2 |
| 20260506001227 | 46 | 150 | 0.0 | 0.0 | 0.00 | 0.34 | 0.00 | 94 | 1009.3 |
| 20260506000728 | 46 | 61 | 0.0 | 0.0 | 0.00 | 0.34 | 0.00 | 94 | 1009.4 |
| 20260506000211 | 46 | 355 | 0.0 | 0.0 | 0.00 | 0.34 | 0.00 | 94 | 1009.4 |
| 20260505235718 | 46 | 355 | 0.0 | 0.0 | 0.00 | 0.34 | 0.00 | 94 | 1009.5 |
| 20260505235206 | 46 | 355 | 0.0 | 0.0 | 0.00 | 0.34 | 0.00 | 94 | 1009.5 |
| 20260505234734 | 46 | 355 | 0.0 | 0.0 | 0.00 | 0.34 | 0.00 | 94 | 1009.8 |
| 20260505234209 | 46 | 355 | 0.0 | 0.0 | 0.00 | 0.34 | 0.00 | 94 | 1009.7 |
| 20260505233722 | 46 | 355 | 0.0 | 0.0 | 0.00 | 0.34 | 0.00 | 94 | 1009.8 |
| 20260505232723 | 46 | 355 | 0.0 | 0.0 | 0.00 | 0.34 | 0.00 | 94 | 1009.8 |
| 20260505232231 | 46 | 355 | 0.0 | 0.0 | 0.00 | 0.34 | 0.00 | 94 | 1009.8 |
| 20260505231711 | 46 | 355 | 0.0 | 0.0 | 0.00 | 0.34 | 0.00 | 94 | 1009.9 |
| 20260505231223 | 46 | 92 | 0.0 | 0.0 | 0.00 | 0.34 | 0.00 | 94 | 1009.9 |
| 20260505230720 | 46 | 93 | 0.0 | 0.0 | 0.00 | 0.34 | 0.00 | 94 | 1010.1 |
| 20260505230208 | 47 | 87 | 0.0 | 0.0 | 0.00 | 0.34 | 0.00 | 94 | 1010.1 |
| 20260505225719 | 47 | 88 | 0.0 | 0.0 | 0.00 | 0.34 | 0.00 | 94 | 1010.1 |
| 20260505225219 | 47 | 88 | 0.0 | 0.0 | 0.00 | 0.34 | 0.00 | 94 | 1010.0 |
| 20260505224715 | 47 | 87 | 0.0 | 0.0 | 0.00 | 0.34 | 0.00 | 94 | 1010.0 |
| 20260505224226 | 47 | 87 | 0.0 | 0.0 | 0.00 | 0.34 | 0.00 | 94 | 1009.9 |
| 20260505223724 | 47 | 115 | 0.0 | 0.0 | 0.00 | 0.34 | 0.00 | 94 | 1010.0 |
| 20260505222711 | 48 | 325 | 0.0 | 0.0 | 0.00 | 0.34 | 0.00 | 94 | 1010.0 |
| 20260505222226 | 48 | 325 | 0.0 | 0.0 | 0.00 | 0.34 | 0.00 | 94 | 1010.0 |
| 20260505221721 | 48 | 325 | 0.0 | 0.0 | 0.00 | 0.34 | 0.00 | 94 | 1010.0 |
| 20260505221225 | 48 | 325 | 0.0 | 0.0 | 0.00 | 0.34 | 0.00 | 94 | 1010.1 |
| 20260505220718 | 48 | 325 | 0.0 | 0.0 | 0.00 | 0.34 | 0.00 | 94 | 1010.1 |
| 20260505220215 | 48 | 188 | 0.0 | 0.0 | 0.00 | 0.34 | 0.34 | 94 | 1010.1 |
| 20260505215229 | 48 | 187 | 0.0 | 0.0 | 0.00 | 0.34 | 0.34 | 94 | 1010.2 |
| 20260505214714 | 48 | 180 | 0.0 | 0.0 | 0.00 | 0.34 | 0.34 | 94 | 1010.2 |
| 20260505213221 | 48 | 158 | 0.0 | 0.0 | 0.00 | 0.34 | 0.34 | 94 | 1010.2 |
| 20260505212725 | 48 | 147 | 0.0 | 0.0 | 0.00 | 0.34 | 0.34 | 94 | 1010.3 |
| 20260505212217 | 49 | 173 | 0.0 | 0.0 | 0.00 | 0.34 | 0.34 | 94 | 1010.3 |
| 20260505211707 | 49 | 173 | 0.0 | 0.0 | 0.00 | 0.34 | 0.34 | 93 | 1010.4 |
| 20260505211234 | 49 | 121 | 0.0 | 0.0 | 0.00 | 0.34 | 0.34 | 93 | 1010.2 |
| 20260505210232 | 49 | 257 | 0.0 | 0.0 | 0.00 | 0.34 | 0.34 | 93 | 1010.2 |
| 20260505205728 | 49 | 257 | 0.0 | 0.0 | 0.00 | 0.34 | 0.34 | 93 | 1010.2 |
| 20260505205218 | 49 | 140 | 0.0 | 0.0 | 0.00 | 0.34 | 0.34 | 93 | 1010.2 |
| 20260505204720 | 49 | 153 | 0.0 | 0.0 | 0.00 | 0.34 | 0.34 | 93 | 1010.2 |
| 20260505204215 | 49 | 137 | 0.0 | 0.0 | 0.00 | 0.34 | 0.34 | 93 | 1010.3 |
| 20260505203725 | 49 | 254 | 0.0 | 0.0 | 0.00 | 0.34 | 0.34 | 93 | 1010.2 |
| 20260505203214 | 49 | 255 | 0.0 | 0.0 | 0.00 | 0.34 | 0.34 | 93 | 1010.2 |
| 20260505202718 | 49 | 255 | 0.0 | 0.0 | 0.00 | 0.34 | 0.34 | 93 | 1010.2 |
| 20260505202222 | 49 | 234 | 0.0 | 0.0 | 0.00 | 0.34 | 0.34 | 93 | 1010.2 |
| 20260505201735 | 49 | 234 | 0.0 | 0.0 | 0.00 | 0.34 | 0.34 | 93 | 1010.1 |
| 20260505201213 | 49 | 235 | 0.0 | 0.0 | 0.00 | 0.34 | 0.34 | 93 | 1010.0 |
| 20260505200730 | 49 | 234 | 0.0 | 0.0 | 0.00 | 0.34 | 0.34 | 93 | 1010.0 |
| 20260505195728 | 49 | 234 | 0.0 | 0.0 | 0.00 | 0.34 | 0.34 | 92 | 1009.9 |
| 20260505195214 | 49 | 234 | 0.0 | 0.0 | 0.00 | 0.34 | 0.34 | 92 | 1009.8 |
| 20260505194721 | 49 | 348 | 0.0 | 0.0 | 0.00 | 0.34 | 0.34 | 92 | 1009.8 |
| 20260505194216 | 49 | 181 | 0.0 | 0.0 | 0.00 | 0.34 | 0.34 | 92 | 1009.9 |
| 20260505193217 | 50 | 188 | 0.0 | 0.0 | 0.00 | 0.34 | 0.34 | 91 | 1009.7 |
| 20260505192725 | 50 | 188 | 0.0 | 0.0 | 0.00 | 0.34 | 0.34 | 91 | 1009.7 |
| 20260505192217 | 50 | 132 | 0.0 | 0.0 | 0.01 | 0.34 | 0.34 | 91 | 1009.5 |
| 20260505191713 | 50 | 115 | 0.0 | 0.0 | 0.01 | 0.34 | 0.34 | 91 | 1009.8 |
| 20260505191211 | 50 | 115 | 0.0 | 0.0 | 0.02 | 0.34 | 0.34 | 91 | 1009.8 |
| 20260505190713 | 50 | 115 | 0.0 | 0.0 | 0.02 | 0.34 | 0.34 | 90 | 1009.7 |
| 20260505190222 | 50 | 115 | 0.0 | 0.0 | 0.04 | 0.34 | 0.34 | 91 | 1009.5 |
| 20260505185726 | 50 | 115 | 0.0 | 0.0 | 0.05 | 0.34 | 0.34 | 90 | 1009.5 |
| 20260505185213 | 50 | 115 | 0.0 | 5.0 | 0.07 | 0.34 | 0.34 | 90 | 1009.4 |
| 20260505184228 | 51 | 96 | 1.0 | 7.0 | 0.14 | 0.34 | 0.34 | 90 | 1009.4 |
| 20260505183713 | 51 | 164 | 1.0 | 7.0 | 0.14 | 0.34 | 0.34 | 90 | 1009.4 |
| 20260505183226 | 51 | 146 | 1.0 | 5.0 | 0.14 | 0.34 | 0.34 | 90 | 1009.5 |
| 20260505182728 | 51 | 136 | 2.0 | 5.0 | 0.13 | 0.33 | 0.33 | 90 | 1009.5 |
| 20260505182213 | 51 | 131 | 1.0 | 5.0 | 0.13 | 0.33 | 0.33 | 89 | 1009.3 |
| 20260505181714 | 51 | 142 | 1.0 | 5.0 | 0.13 | 0.32 | 0.32 | 89 | 1009.4 |
| 20260505181214 | 51 | 139 | 0.0 | 8.0 | 0.12 | 0.31 | 0.31 | 88 | 1009.7 |
| 20260505180729 | 51 | 140 | 1.0 | 10.0 | 0.12 | 0.31 | 0.31 | 87 | 1009.5 |
| 20260505180221 | 52 | 113 | 1.0 | 10.0 | 0.10 | 0.30 | 0.30 | 86 | 1009.5 |
| 20260505175214 | 53 | 40 | 1.0 | 3.0 | 0.06 | 0.25 | 0.25 | 86 | 1009.3 |
| 20260505174723 | 53 | 339 | 0.0 | 0.0 | 0.00 | 0.20 | 0.20 | 87 | 1009.4 |
| 20260505174221 | 53 | 161 | 0.0 | 0.0 | 0.00 | 0.20 | 0.20 | 86 | 1009.0 |
| 20260505173707 | 53 | 159 | 0.0 | 4.0 | 0.00 | 0.20 | 0.20 | 85 | 1009.0 |
| 20260505173223 | 53 | 162 | 0.0 | 4.0 | 0.00 | 0.20 | 0.20 | 85 | 1009.0 |
| 20260505172713 | 53 | 154 | 0.0 | 4.0 | 0.00 | 0.20 | 0.20 | 85 | 1009.0 |
| 20260505171711 | 53 | 138 | 0.0 | 3.0 | 0.00 | 0.20 | 0.20 | 85 | 1009.0 |
| 20260505170713 | 54 | 113 | 0.0 | 3.0 | 0.00 | 0.21 | 0.20 | 86 | 1008.9 |
| 20260505170207 | 54 | 139 | 0.0 | 3.0 | 0.00 | 0.21 | 0.20 | 86 | 1009.0 |
| 20260505165726 | 53 | 140 | 0.0 | 0.0 | 0.00 | 0.22 | 0.20 | 86 | 1009.0 |
| 20260505165212 | 53 | 186 | 0.0 | 0.0 | 0.00 | 0.22 | 0.20 | 86 | 1009.0 |
| 20260505164715 | 53 | 133 | 0.0 | 0.0 | 0.00 | 0.23 | 0.20 | 87 | 1009.0 |
| 20260505164207 | 53 | 123 | 0.0 | 6.0 | 0.00 | 0.23 | 0.20 | 87 | 1009.1 |
| 20260505163715 | 53 | 125 | 1.0 | 6.0 | 0.00 | 0.23 | 0.20 | 87 | 1009.2 |
| 20260505163215 | 53 | 143 | 1.0 | 6.0 | 0.00 | 0.23 | 0.20 | 87 | 1009.1 |
| 20260505162729 | 53 | 179 | 1.0 | 7.0 | 0.00 | 0.24 | 0.20 | 86 | 1009.1 |
| 20260505162227 | 54 | 132 | 3.0 | 7.0 | 0.00 | 0.24 | 0.20 | 86 | 1009.0 |
| 20260505161721 | 54 | 145 | 3.0 | 7.0 | 0.00 | 0.24 | 0.20 | 86 | 1009.0 |
| 20260505161224 | 54 | 125 | 2.0 | 6.0 | 0.00 | 0.24 | 0.20 | 87 | 1009.0 |
| 20260505160718 | 54 | 127 | 2.0 | 8.0 | 0.00 | 0.24 | 0.20 | 86 | 1009.1 |
| 20260505160228 | 53 | 109 | 3.0 | 8.0 | 0.00 | 0.24 | 0.20 | 86 | 1009.0 |
| 20260505152728 | 53 | 143 | 1.0 | 5.0 | 0.17 | 0.24 | 0.20 | 89 | 1009.0 |
| 20260505152220 | 53 | 179 | 1.0 | 5.0 | 0.17 | 0.24 | 0.20 | 88 | 1009.0 |
| 20260505151722 | 53 | 107 | 1.0 | 5.0 | 0.17 | 0.24 | 0.20 | 89 | 1009.0 |
| 20260505151209 | 53 | 167 | 1.0 | 4.0 | 0.17 | 0.24 | 0.20 | 88 | 1009.0 |
| 20260505150226 | 53 | 157 | 0.0 | 0.0 | 0.17 | 0.24 | 0.20 | 86 | 1009.1 |
| 20260505140243 | 60 | 281 | 4.0 | 10.0 | 0.00 | 0.07 | 0.02 | 66 | 1008.5 |
| 20260505130219 | 59 | 126 | 2.0 | 8.0 | 0.00 | 0.07 | 0.02 | 71 | 1008.7 |
| 20260505124720 | 58 | 111 | 0.0 | 0.0 | 0.00 | 0.07 | 0.02 | 73 | 1008.8 |
| 20260505124229 | 58 | 165 | 0.0 | 0.0 | 0.00 | 0.07 | 0.02 | 76 | 1008.7 |
| 20260505123720 | 58 | 215 | 0.0 | 0.0 | 0.00 | 0.07 | 0.02 | 77 | 1008.8 |
| 20260505123222 | 58 | 161 | 0.0 | 0.0 | 0.00 | 0.07 | 0.02 | 84 | 1008.8 |
| 20260505122719 | 57 | 171 | 0.0 | 0.0 | 0.00 | 0.07 | 0.02 | 83 | 1009.0 |
| 20260505122227 | 56 | 130 | 0.0 | 0.0 | 0.00 | 0.07 | 0.02 | 85 | 1009.0 |
| 20260505121722 | 55 | 167 | 0.0 | 0.0 | 0.01 | 0.07 | 0.02 | 85 | 1009.0 |
| 20260505121223 | 55 | 175 | 0.0 | 0.0 | 0.01 | 0.07 | 0.02 | 85 | 1009.1 |
| 20260505120719 | 55 | 179 | 0.0 | 0.0 | 0.01 | 0.07 | 0.02 | 85 | 1009.1 |
| 20260505120212 | 55 | 171 | 0.0 | 0.0 | 0.01 | 0.07 | 0.02 | 87 | 1009.1 |
| 20260505115721 | 55 | 172 | 0.0 | 0.0 | 0.01 | 0.07 | 0.02 | 87 | 1009.2 |
| 20260505114719 | 54 | 159 | 0.0 | 0.0 | 0.01 | 0.07 | 0.02 | 87 | 1009.3 |
| 20260505114207 | 54 | 171 | 0.0 | 0.0 | 0.01 | 0.07 | 0.02 | 87 | 1009.3 |
| 20260505113726 | 54 | 188 | 0.0 | 0.0 | 0.01 | 0.07 | 0.02 | 87 | 1009.4 |
| 20260505113231 | 54 | 169 | 0.0 | 0.0 | 0.01 | 0.07 | 0.02 | 87 | 1009.4 |
| 20260505112217 | 54 | 178 | 0.0 | 0.0 | 0.00 | 0.06 | 0.02 | 87 | 1009.4 |
| 20260505111721 | 54 | 161 | 0.0 | 0.0 | 0.00 | 0.06 | 0.02 | 87 | 1009.4 |
| 20260505111210 | 54 | 145 | 0.0 | 0.0 | 0.00 | 0.06 | 0.02 | 87 | 1009.5 |
| 20260505110217 | 54 | 154 | 0.0 | 0.0 | 0.00 | 0.06 | 0.02 | 86 | 1009.5 |
| 20260505101725 | 54 | 271 | 0.0 | 0.0 | 0.00 | 0.06 | 0.02 | 83 | 1009.4 |
| 20260505101210 | 54 | 271 | 0.0 | 0.0 | 0.00 | 0.06 | 0.02 | 84 | 1009.4 |
| 20260505100711 | 54 | 271 | 0.0 | 0.0 | 0.00 | 0.06 | 0.02 | 84 | 1009.4 |
| 20260505095218 | 53 | 170 | 0.0 | 0.0 | 0.00 | 0.06 | 0.02 | 85 | 1009.4 |
| 20260505094217 | 53 | 174 | 0.0 | 0.0 | 0.00 | 0.06 | 0.02 | 85 | 1009.4 |
| 20260505093722 | 53 | 177 | 0.0 | 0.0 | 0.00 | 0.06 | 0.02 | 85 | 1009.4 |
| 20260505093212 | 53 | 167 | 0.0 | 0.0 | 0.01 | 0.06 | 0.02 | 86 | 1009.4 |
| 20260505092719 | 53 | 323 | 0.0 | 0.0 | 0.01 | 0.06 | 0.02 | 86 | 1009.4 |
| 20260505092220 | 53 | 323 | 0.0 | 0.0 | 0.01 | 0.06 | 0.02 | 85 | 1009.4 |
| 20260505091716 | 53 | 324 | 0.0 | 0.0 | 0.01 | 0.06 | 0.02 | 85 | 1009.4 |
| 20260505090711 | 52 | 309 | 0.0 | 0.0 | 0.02 | 0.06 | 0.02 | 84 | 1009.7 |
| 20260505090220 | 52 | 296 | 0.0 | 0.0 | 0.02 | 0.06 | 0.02 | 85 | 1009.8 |
| 20260505084727 | 52 | 173 | 0.0 | 0.0 | 0.02 | 0.06 | 0.02 | 86 | 1010.0 |
| 20260505084224 | 52 | 173 | 0.0 | 0.0 | 0.02 | 0.06 | 0.02 | 85 | 1010.1 |
| 20260505083716 | 52 | 173 | 0.0 | 0.0 | 0.01 | 0.06 | 0.01 | 85 | 1010.1 |
| 20260505083223 | 52 | 173 | 0.0 | 0.0 | 0.01 | 0.06 | 0.01 | 85 | 1010.1 |
| 20260505082716 | 52 | 173 | 0.0 | 0.0 | 0.01 | 0.06 | 0.01 | 85 | 1010.1 |
| 20260505082219 | 53 | 173 | 0.0 | 0.0 | 0.01 | 0.06 | 0.01 | 84 | 1010.2 |
| 20260505081220 | 53 | 176 | 0.0 | 0.0 | 0.00 | 0.05 | 0.00 | 83 | 1010.2 |
| 20260505080717 | 53 | 157 | 0.0 | 0.0 | 0.00 | 0.05 | 0.00 | 84 | 1010.2 |
| 20260505080227 | 53 | 150 | 0.0 | 0.0 | 0.00 | 0.05 | 0.00 | 82 | 1010.2 |
| 20260505075718 | 53 | 169 | 0.0 | 0.0 | 0.00 | 0.05 | 0.00 | 83 | 1010.2 |
| 20260505075209 | 53 | 168 | 0.0 | 0.0 | 0.00 | 0.05 | 0.00 | 82 | 1010.2 |
| 20260505074713 | 53 | 168 | 0.0 | 0.0 | 0.00 | 0.05 | 0.00 | 81 | 1010.2 |
| 20260505074226 | 53 | 168 | 0.0 | 0.0 | 0.00 | 0.05 | 0.00 | 82 | 1010.2 |
| 20260505073720 | 53 | 168 | 0.0 | 0.0 | 0.00 | 0.05 | 0.00 | 82 | 1010.2 |
| 20260505073212 | 53 | 168 | 0.0 | 0.0 | 0.00 | 0.05 | 0.00 | 84 | 1010.2 |
| 20260505072722 | 53 | 168 | 0.0 | 0.0 | 0.00 | 0.05 | 0.00 | 84 | 1010.2 |
| 20260505072226 | 53 | 172 | 0.0 | 0.0 | 0.00 | 0.05 | 0.00 | 85 | 1010.3 |
| 20260505071725 | 53 | 169 | 0.0 | 0.0 | 0.00 | 0.05 | 0.00 | 84 | 1010.2 |
| 20260505071213 | 53 | 186 | 0.0 | 0.0 | 0.00 | 0.05 | 0.00 | 84 | 1010.2 |
| 20260505070714 | 53 | 179 | 0.0 | 0.0 | 0.00 | 0.05 | 0.00 | 84 | 1010.3 |
| 20260505070221 | 52 | 184 | 0.0 | 0.0 | 0.00 | 0.05 | 0.00 | 85 | 1010.3 |
| 20260505065726 | 52 | 184 | 0.0 | 0.0 | 0.00 | 0.05 | 0.00 | 86 | 1010.4 |
| 20260505065223 | 52 | 184 | 0.0 | 0.0 | 0.00 | 0.05 | 0.00 | 88 | 1010.4 |
| 20260505064716 | 51 | 148 | 0.0 | 0.0 | 0.00 | 0.05 | 0.00 | 86 | 1010.4 |
| 20260505064225 | 51 | 148 | 0.0 | 0.0 | 0.00 | 0.05 | 0.00 | 86 | 1010.5 |
| 20260505063721 | 51 | 148 | 0.0 | 0.0 | 0.00 | 0.05 | 0.00 | 86 | 1010.5 |
| 20260505063218 | 51 | 148 | 0.0 | 0.0 | 0.00 | 0.05 | 0.00 | 87 | 1010.5 |
| 20260505062721 | 51 | 148 | 0.0 | 0.0 | 0.00 | 0.05 | 0.00 | 87 | 1010.6 |
| 20260505062224 | 51 | 148 | 0.0 | 0.0 | 0.00 | 0.05 | 0.00 | 87 | 1010.6 |
| 20260505061719 | 51 | 148 | 0.0 | 0.0 | 0.00 | 0.05 | 0.00 | 87 | 1010.6 |
| 20260505060718 | 50 | 148 | 0.0 | 0.0 | 0.00 | 0.05 | 0.00 | 88 | 1010.6 |
| 20260505060220 | 50 | 148 | 0.0 | 0.0 | 0.00 | 0.05 | 0.00 | 88 | 1010.6 |
| 20260505055715 | 50 | 344 | 0.0 | 0.0 | 0.00 | 0.05 | 0.00 | 88 | 1010.5 |
| 20260505055216 | 49 | 319 | 0.0 | 0.0 | 0.00 | 0.05 | 0.00 | 88 | 1010.6 |